Date,TemperatureHighF,TemperatureAvgF,TemperatureLowF,DewpointHighF,DewpointAvgF,DewpointLowF,HumidityHigh,HumidityAvg,HumidityLow,PressureMaxIn,PressureMinIn,WindSpeedMaxMPH,WindSpeedAvgMPH,GustSpeedMaxMPH,PrecipitationSumIn
2012-1-1,63.6,53.8,38.9,58.4,42.9,28.4,94,68,46,30.21,29.95,18,3,21,0.14
2012-1-2,42.4,34.1,23.6,28.4,17.5,8.4,67,51,32,30.31,30.09,14,2,16,0.01
2012-1-3,33.4,25.3,19.5,15.8,13.1,10.9,76,60,43,30.48,30.30,7,1,9,0.00
2012-1-4,47.9,32.4,16.1,29.2,18.3,12.5,89,60,32,30.41,30.14,17,2,17,0.00
2012-1-5,54.9,41.2,28.1,35.6,28.3,24.3,91,63,32,30.22,30.10,7,1,8,0.00
2012-1-6,62.7,46.2,28.6,46.0,32.4,24.8,89,62,33,30.15,29.98,11,1,12,0.00
2012-1-7,61.5,57.2,53.5,58.3,52.9,45.6,95,86,67,30.08,29.95,16,2,16,0.14
2012-1-8,53.4,50.8,47.6,52.0,49.8,46.5,97,96,95,30.18,30.08,4,0,5,0.03
2012-1-9,56.7,51.3,46.9,56.1,50.6,46.1,100,98,97,30.15,30.04,4,0,5,0.00
2012-1-10,57.4,51.5,48.9,55.6,50.1,47.8,98,95,91,30.07,29.79,14,1,16,0.01
2012-1-11,66.3,55.2,48.5,59.6,52.3,45.4,96,90,74,29.79,29.42,25,5,25,0.71
2012-1-12,51.3,44.1,29.0,46.2,38.9,18.9,93,82,60,29.89,29.51,22,5,26,0.09
2012-1-13,34.4,28.7,24.8,22.0,18.4,14.1,77,65,54,30.21,29.88,16,4,19,0.00
2012-1-14,48.8,43.3,20.8,30.2,24.2,16.9,92,48,36,30.28,30.01,17,4,23,0.00
2012-1-15,49.0,38.0,27.9,29.9,26.8,23.6,85,65,43,30.47,30.17,10,1,14,0.00
2012-1-16,56.5,47.8,34.8,29.9,25.3,21.2,67,42,28,30.43,30.20,23,4,25,0.00
2012-1-17,62.9,57.3,41.5,57.1,53.4,37.2,95,87,78,30.08,29.81,26,6,27,0.80
2012-1-18,41.4,35.3,29.2,37.4,27.3,23.8,88,73,54,30.20,30.07,10,1,11,0.00
2012-1-19,46.6,35.7,24.8,34.9,27.7,23.0,93,74,51,30.16,30.00,6,1,7,0.01
2012-1-20,53.5,48.0,41.5,48.6,43.7,33.7,100,85,66,30.07,29.88,8,1,9,0.12
2012-1-21,64.1,52.7,44.1,60.9,51.0,42.3,98,94,82,30.05,29.77,22,2,22,0.85
2012-1-22,62.2,51.6,42.8,53.7,47.4,41.8,98,86,72,30.11,29.94,27,4,31,0.00
2012-1-23,67.6,56.8,49.8,56.2,52.0,48.4,96,84,64,30.02,29.77,33,6,37,1.81
2012-1-24,60.8,49.0,36.8,51.0,40.7,35.5,97,76,42,30.24,30.01,6,1,10,0.01
2012-1-25,66.2,51.7,34.2,50.6,40.6,31.8,94,68,43,30.25,30.03,14,2,17,0.00
2012-1-26,66.4,62.5,58.4,59.4,55.9,49.5,95,80,65,30.03,29.53,32,6,32,0.46
2012-1-27,60.9,48.0,35.4,58.2,41.7,33.0,94,79,56,30.04,29.55,10,2,14,0.27
2012-1-28,54.9,40.8,31.2,44.0,29.8,16.7,97,70,32,30.33,30.00,10,1,15,0.01
2012-1-29,52.2,38.2,22.9,27.6,20.3,14.9,90,52,25,30.43,30.30,15,1,16,0.00
2012-1-30,61.1,44.3,26.6,34.2,25.1,20.9,85,51,26,30.42,30.28,13,1,15,0.00
2012-1-31,65.7,55.2,45.3,32.8,26.7,22.0,53,34,24,30.34,30.17,12,2,13,0.00
2012-2-1,60.3,54.8,52.6,52.9,49.3,32.2,97,84,37,30.19,30.03,10,1,12,1.03
2012-2-2,65.9,55.9,47.2,54.5,46.0,35.3,100,73,40,30.27,30.02,7,1,10,0.10
2012-2-3,66.1,53.1,37.1,41.4,35.8,33.0,87,55,31,30.36,30.23,18,3,18,0.00
2012-2-4,57.1,53.6,49.0,55.5,47.6,34.0,97,82,42,30.25,29.98,22,2,25,0.49
2012-2-5,62.7,55.2,45.3,55.5,50.0,41.9,100,84,56,30.12,29.97,7,0,7,0.01
2012-2-6,55.2,46.1,39.3,44.9,40.2,34.9,94,81,62,30.20,30.11,7,1,7,0.01
2012-2-7,57.1,42.4,30.1,39.7,32.8,28.3,100,72,39,30.23,30.12,7,1,8,0.00
2012-2-8,52.9,43.5,36.5,39.0,34.5,30.5,86,71,51,30.28,30.13,6,1,9,0.00
2012-2-9,50.6,40.6,31.4,33.4,30.5,27.6,87,68,48,30.30,30.16,8,1,10,0.00
2012-2-10,49.4,38.0,28.1,35.9,31.4,25.8,94,78,55,30.19,29.97,9,1,11,0.00
2012-2-11,40.7,31.3,21.3,36.0,20.2,8.4,88,64,45,30.40,29.93,13,3,18,0.00
2012-2-12,39.8,27.8,16.7,16.4,12.5,8.7,74,53,35,30.47,30.35,10,1,12,0.00
2012-2-13,44.8,33.3,18.0,28.5,20.8,14.4,92,62,42,30.35,30.06,12,1,12,0.00
2012-2-14,46.2,41.9,38.0,42.0,38.2,27.6,93,87,55,30.13,29.97,18,2,20,0.16
2012-2-15,62.9,51.1,37.2,47.9,42.4,35.9,96,75,43,30.22,30.06,20,2,24,0.00
2012-2-16,61.7,55.1,50.2,56.1,49.6,39.9,96,82,49,30.14,29.98,27,3,33,0.34
2012-2-17,62.3,51.5,42.3,45.5,40.7,34.0,94,69,39,30.17,30.03,10,1,11,0.00
2012-2-18,62.8,52.0,40.1,48.2,42.1,36.1,89,70,48,30.06,29.87,6,1,9,0.02
2012-2-19,48.2,42.4,35.2,43.7,39.2,33.0,95,89,72,30.06,29.70,11,1,11,1.04
2012-2-20,57.0,42.7,34.4,38.9,33.5,26.0,93,72,41,30.28,30.06,24,2,29,0.01
2012-2-21,61.4,53.8,46.5,45.1,38.2,26.0,67,55,41,30.17,29.91,28,8,29,0.01
2012-2-22,67.4,56.4,41.6,54.4,46.9,33.6,95,71,57,29.96,29.51,27,5,28,0.36
2012-2-23,77.5,67.7,54.6,59.8,55.9,50.3,95,69,40,29.61,29.40,30,7,35,0.00
2012-2-24,71.3,58.1,39.5,61.7,45.8,26.2,91,64,37,30.09,29.48,23,5,24,0.28
2012-2-25,55.1,41.7,31.5,29.4,22.9,16.2,78,50,24,30.32,30.08,21,2,21,0.00
2012-2-26,61.2,45.5,27.8,30.1,24.3,17.7,75,46,27,30.41,30.26,27,3,27,0.00
2012-2-27,67.3,56.0,45.1,46.5,38.4,26.7,77,52,36,30.38,30.26,20,2,20,0.00
2012-2-28,72.0,57.0,36.2,54.5,44.3,33.3,91,65,39,30.34,30.12,22,2,22,0.00
2012-2-29,70.5,65.8,60.5,62.1,59.7,54.4,91,81,70,30.12,29.73,32,7,33,0.16
2012-3-1,73.2,62.3,50.8,61.8,43.9,33.7,95,56,26,29.92,29.79,13,2,13,0.00
2012-3-2,75.7,67.6,58.4,64.6,56.2,36.8,94,68,39,29.79,29.52,34,6,34,0.23
2012-3-3,61.8,48.8,41.9,59.3,45.5,26.8,95,89,45,29.83,29.56,6,1,7,0.63
2012-3-4,51.4,42.9,31.5,30.7,25.6,20.5,81,52,33,29.98,29.82,14,2,18,0.00
2012-3-5,51.5,46.9,42.5,30.9,27.5,25.0,58,47,37,30.25,29.87,26,6,26,0.00
2012-3-6,65.3,52.6,27.7,34.7,27.4,18.5,76,40,25,30.53,30.36,30,5,30,0.00
2012-3-7,70.0,59.5,52.0,49.2,41.9,24.8,67,53,33,30.46,30.25,28,7,30,0.00
2012-3-8,71.9,62.1,56.7,58.9,52.8,48.9,95,73,52,30.26,29.98,27,6,27,1.31
2012-3-9,58.2,49.8,40.2,55.4,37.6,29.1,96,66,37,30.35,30.08,17,2,17,0.39
2012-3-10,65.5,50.3,34.9,38.1,31.8,26.4,77,51,32,30.43,30.30,17,2,18,0.00
2012-3-11,71.4,60.3,49.1,47.6,37.6,24.9,55,43,32,30.44,30.23,23,5,29,0.00
2012-3-12,64.3,61.4,58.8,56.7,52.7,45.3,92,74,55,30.25,30.12,27,7,31,0.07
2012-3-13,78.5,66.3,57.3,63.5,57.7,54.5,97,76,47,30.20,30.07,11,2,14,0.03
2012-3-14,81.6,66.1,50.5,62.1,53.8,48.9,96,68,36,30.22,30.10,9,1,10,0.00
2012-3-15,83.9,68.1,55.3,64.0,55.9,50.5,94,68,39,30.28,30.06,10,1,14,0.77
2012-3-16,79.8,54.9,53.1,62.6,37.9,-99.9,97,74,50,30.24,30.07,22,-120,22,0.52
2012-3-17,78.7,20.5,72.1,63.9,-56.3,-99.9,71,17,55,30.18,30.07,3,-729,5,0.19
2012-3-18,82.7,77.1,64.7,61.5,54.6,51.6,65,46,38,30.17,30.05,11,2,13,0.00
2012-3-19,84.7,70.4,56.8,62.3,55.4,51.7,84,61,35,30.15,30.00,9,1,10,0.00
2012-3-20,85.8,76.6,65.3,63.5,57.3,53.4,70,52,36,30.09,29.95,14,2,16,0.00
2012-3-21,82.4,74.1,66.1,60.2,56.2,52.9,73,55,38,30.14,30.04,19,3,21,0.00
2012-3-22,79.6,72.3,63.0,63.8,59.7,55.6,90,65,51,30.12,30.00,23,4,23,0.01
2012-3-23,73.8,68.9,63.7,65.9,61.5,58.1,90,78,63,30.02,29.84,21,3,21,0.15
2012-3-24,68.1,59.0,52.3,61.8,53.6,46.8,94,83,51,29.84,29.74,11,1,13,0.64
2012-3-25,75.1,59.7,48.4,53.8,49.8,46.7,96,73,39,29.92,29.81,11,1,12,0.01
2012-3-26,78.3,64.6,52.6,57.5,52.1,48.3,92,66,42,30.06,29.92,16,1,16,0.00
2012-3-27,79.1,65.0,51.9,57.5,49.8,45.9,83,60,36,30.17,30.05,14,2,15,0.00
2012-3-28,79.4,67.9,55.3,62.0,52.8,45.5,78,59,45,30.10,29.92,17,2,18,0.00
2012-3-29,82.4,70.0,61.0,62.2,57.0,49.3,84,64,42,29.97,29.83,10,1,10,0.00
2012-3-30,78.7,64.0,55.1,64.6,59.4,53.1,95,86,57,29.93,29.80,11,1,14,0.27
2012-3-31,77.3,66.1,59.7,65.2,61.1,57.2,99,85,57,29.87,29.74,10,0,10,0.00
2012-4-1,59.6,55.4,50.5,58.2,54.0,49.3,97,95,92,29.84,29.79,2,0,2,0.01
2012-4-2,84.8,73.9,64.1,69.3,64.1,57.7,88,73,52,29.82,29.71,11,1,11,0.00
2012-4-3,85.1,71.5,60.6,68.9,63.3,59.2,97,78,48,29.91,29.76,10,1,10,0.04
2012-4-4,84.2,68.4,56.7,66.0,60.4,55.3,97,78,44,29.83,29.62,12,1,13,0.05
2012-4-5,75.4,65.8,58.0,65.1,60.4,53.0,96,83,61,29.72,29.55,10,1,11,0.73
2012-4-6,69.3,58.6,49.8,56.9,49.8,42.2,96,76,40,29.94,29.69,12,2,13,0.01
2012-4-7,73.5,57.6,39.7,55.2,44.9,36.3,92,64,39,30.23,30.06,6,1,3,0.00
2012-4-8,77.5,54.4,43.4,54.4,45.9,41.7,96,77,39,30.18,30.04,5,0,4,0.00
2012-4-9,75.5,57.8,40.0,48.4,41.6,36.0,96,60,27,30.10,29.95,9,1,10,0.00
2012-4-10,72.0,56.0,40.0,50.9,41.6,31.4,94,61,35,30.03,29.91,11,1,11,0.00
2012-4-11,63.1,49.7,34.4,37.8,31.2,27.3,86,52,26,30.17,30.00,9,1,10,0.00
2012-4-12,65.4,47.9,30.8,38.8,32.2,27.7,90,58,28,30.25,30.09,9,1,10,0.00
2012-4-13,72.8,53.9,34.4,46.3,39.0,31.9,93,62,29,30.20,30.11,6,1,7,0.00
2012-4-14,80.3,67.5,53.5,55.6,45.8,37.3,63,46,38,30.21,30.05,16,2,18,0.00
2012-4-15,81.6,71.6,62.2,63.9,53.5,43.8,76,53,44,30.12,30.00,17,3,17,0.00
2012-4-16,78.6,70.6,62.6,68.4,62.1,58.4,95,75,58,30.13,29.98,21,3,26,0.10
2012-4-17,72.5,62.5,56.0,62.9,58.5,52.1,97,87,67,30.16,30.06,11,1,11,0.07
2012-4-18,60.6,56.1,53.0,58.3,54.5,51.6,96,94,87,30.07,30.00,9,0,9,0.23
2012-4-19,76.0,62.9,53.7,60.5,55.7,52.4,97,79,50,30.04,29.89,7,1,8,0.00
2012-4-20,76.1,65.8,59.8,62.4,57.6,53.6,86,75,55,29.91,29.75,13,1,18,0.00
2012-4-21,64.5,62.1,59.0,58.0,57.1,56.4,93,84,77,29.79,29.73,7,0,7,0.00
2012-4-22,58.7,51.6,44.7,50.2,42.2,36.6,87,71,53,29.79,29.69,8,1,10,0.00
2012-4-23,60.4,47.4,36.4,39.1,33.1,27.5,92,61,29,29.86,29.76,11,1,11,0.00
2012-4-24,63.9,52.1,41.1,49.2,40.2,29.1,91,65,39,29.89,29.81,11,1,12,0.04
2012-4-25,81.0,65.6,49.2,63.3,55.3,47.3,94,72,49,29.84,29.74,15,2,15,0.00
2012-4-26,76.2,69.0,62.0,67.0,61.7,56.6,96,79,56,29.88,29.73,21,3,25,0.28
2012-4-27,75.8,68.0,59.9,65.7,62.0,56.3,97,82,59,30.01,29.86,10,0,10,0.00
2012-4-28,83.2,70.1,58.6,68.9,61.2,57.1,97,76,45,30.04,29.92,17,1,18,0.00
2012-4-29,87.0,71.2,56.4,67.9,61.7,55.0,97,75,43,30.09,30.00,8,0,8,0.00
2012-4-30,87.8,74.2,59.0,67.7,61.4,57.0,96,67,39,30.10,29.97,13,1,14,0.00
2012-5-1,89.0,76.1,61.3,68.7,63.1,58.1,91,66,43,30.06,29.92,11,1,12,0.00
2012-5-2,90.3,79.7,71.0,69.9,65.1,62.1,77,62,42,30.07,29.95,10,1,11,0.00
2012-5-3,84.7,76.2,63.0,71.4,65.1,59.0,92,69,57,30.07,29.97,13,1,23,0.22
2012-5-4,84.0,72.1,61.7,69.7,65.0,60.0,97,80,56,30.05,29.89,9,1,10,0.01
2012-5-5,89.9,74.6,62.5,71.2,64.8,61.1,97,74,43,29.99,29.81,10,1,13,0.00
2012-5-6,89.1,74.6,60.5,69.5,63.9,59.1,97,72,42,29.96,29.81,13,1,17,0.00
2012-5-7,80.6,73.4,68.3,70.5,64.4,60.4,94,74,60,29.91,29.76,19,4,21,0.10
2012-5-8,82.7,72.4,64.2,67.7,64.5,61.8,96,77,53,29.87,29.75,17,1,17,0.02
2012-5-9,71.4,64.9,56.4,62.9,57.9,47.4,92,79,53,29.85,29.74,7,0,7,0.02
2012-5-10,75.2,60.8,45.4,53.2,46.7,43.3,95,64,34,29.97,29.82,9,1,10,0.00
2012-5-11,80.2,64.1,43.4,56.5,48.7,40.9,94,61,35,30.12,29.96,8,1,9,0.00
2012-5-12,78.9,70.6,64.0,61.8,55.9,48.8,72,60,49,30.20,30.07,20,4,22,0.00
2012-5-13,69.7,63.4,61.1,60.8,59.0,56.8,93,86,65,30.10,29.93,24,5,27,0.54
2012-5-14,74.2,66.7,62.3,68.7,63.8,60.3,97,91,77,29.94,29.86,7,0,11,0.14
2012-5-15,78.8,68.0,59.8,66.5,62.1,58.6,97,83,59,29.96,29.88,5,0,6,0.00
2012-5-16,83.8,68.1,54.0,65.5,58.2,52.9,98,74,40,29.98,29.85,10,1,11,0.01
2012-5-17,87.0,70.5,53.3,63.8,56.8,51.7,97,67,34,29.95,29.85,10,1,10,0.00
2012-5-18,84.2,70.3,58.8,67.8,61.3,56.4,95,74,46,30.01,29.93,9,1,9,0.00
2012-5-19,87.0,72.6,59.0,66.6,62.1,57.0,96,72,44,30.09,29.96,9,1,10,0.00
2012-5-20,65.9,65.3,64.9,62.2,62.0,61.9,90,89,88,30.02,30.02,2,1,3,0.00
2012-5-21,83.7,69.3,59.6,68.3,62.6,58.1,96,81,48,29.99,29.87,7,1,5,0.68
2012-5-22,75.2,65.6,61.3,66.9,62.7,60.1,97,91,71,29.92,29.80,4,0,7,0.31
2012-5-23,81.3,68.6,60.6,67.5,62.5,59.7,98,83,50,29.87,29.79,9,0,9,0.01
2012-5-24,88.3,76.4,63.7,65.4,60.7,55.1,93,61,39,29.93,29.81,11,2,14,0.00
2012-5-25,91.3,80.0,66.4,71.7,65.2,59.1,88,62,39,30.04,29.89,11,1,15,0.00
2012-5-26,92.9,78.7,64.3,74.1,68.1,62.9,97,73,45,30.10,29.98,9,0,9,0.00
2012-5-27,93.5,82.3,67.3,73.7,68.7,64.7,93,66,44,30.04,29.90,14,1,14,0.00
2012-5-28,92.9,82.4,73.7,70.5,66.4,64.0,75,59,42,29.95,29.81,20,3,24,0.00
2012-5-29,92.3,78.7,68.5,73.3,67.3,64.6,95,70,43,29.87,29.72,20,2,20,0.57
2012-5-30,90.7,76.7,66.5,71.1,65.0,55.0,97,72,31,29.81,29.74,6,0,6,0.01
2012-5-31,82.9,69.7,59.0,71.2,63.1,56.7,95,81,54,29.82,29.68,12,1,16,0.16
2012-6-1,74.9,68.3,57.0,67.0,61.5,51.0,96,80,56,29.86,29.65,13,1,16,0.45
2012-6-2,75.7,62.4,49.4,55.0,50.8,47.0,97,70,38,29.96,29.85,8,1,8,0.01
2012-6-3,85.0,69.7,52.7,66.2,59.2,51.1,97,72,41,29.96,29.78,12,1,12,0.01
2012-6-4,83.2,72.7,66.3,71.0,66.9,60.7,97,83,60,29.81,29.69,11,1,22,0.37
2012-6-5,80.2,68.8,61.3,67.4,61.2,55.1,97,78,48,29.80,29.68,9,1,9,1.14
2012-6-6,81.3,67.7,55.8,63.6,56.7,53.1,94,71,40,29.93,29.77,8,1,9,0.00
2012-6-7,82.7,68.7,55.8,65.0,59.1,53.7,95,74,42,30.00,29.92,5,1,6,0.00
2012-6-8,86.5,71.5,56.6,66.5,59.1,54.6,94,68,36,30.03,29.91,6,1,7,0.00
2012-6-9,84.9,73.9,62.6,69.9,63.3,56.2,90,71,53,30.02,29.89,7,0,8,0.00
2012-6-10,77.0,70.8,63.5,68.9,63.9,58.3,94,79,60,30.00,29.93,19,3,21,0.15
2012-6-11,80.6,73.2,68.6,74.2,69.3,65.5,96,88,76,29.98,29.85,17,2,20,0.27
2012-6-12,82.7,73.9,66.6,73.7,69.4,64.4,97,87,67,29.95,29.81,6,0,7,0.60
2012-6-13,88.5,75.4,62.9,73.0,65.8,60.4,98,75,47,29.95,29.86,6,1,9,0.01
2012-6-14,89.5,76.3,65.5,74.0,67.0,59.9,89,74,51,30.01,29.91,20,1,20,0.00
2012-6-15,88.4,78.2,71.8,72.1,65.3,61.1,77,65,50,30.11,29.97,28,3,28,0.00
2012-6-16,86.5,77.5,69.7,69.4,63.1,57.6,85,62,48,30.18,30.01,20,2,20,0.00
2012-6-17,85.4,76.7,66.1,67.2,64.6,62.3,93,68,47,30.09,29.91,11,1,11,0.00
2012-6-18,89.8,74.7,66.4,66.9,62.8,60.0,87,68,44,30.02,29.92,9,1,9,0.00
2012-6-19,91.4,80.8,71.3,67.7,63.8,60.2,73,57,41,30.10,30.00,10,1,10,0.00
2012-6-20,93.8,82.1,71.1,69.9,66.0,62.9,76,60,40,30.11,29.97,9,1,11,0.00
2012-6-21,94.6,81.7,67.9,71.4,67.3,63.3,92,64,37,30.03,29.82,7,1,7,0.00
2012-6-22,94.5,81.8,68.3,72.2,68.2,63.6,90,65,40,29.90,29.76,13,1,20,0.00
2012-6-23,96.5,80.7,67.5,73.5,67.6,62.8,97,68,36,29.89,29.81,7,1,7,0.00
2012-6-24,98.0,81.4,66.8,73.7,66.3,60.8,93,64,30,29.91,29.77,7,1,7,0.00
2012-6-25,98.8,84.0,69.5,73.1,66.9,62.7,90,60,32,29.81,29.63,10,1,12,0.00
2012-6-26,91.1,78.4,66.4,63.6,53.9,44.2,66,46,21,29.81,29.68,13,2,13,0.00
2012-6-27,93.1,75.7,57.2,58.1,53.1,49.3,78,49,24,29.97,29.81,7,1,8,0.00
2012-6-28,102.3,82.8,58.3,64.5,59.6,53.5,87,51,23,30.01,29.86,10,1,10,0.00
2012-6-29,105.5,87.2,67.7,68.2,64.5,61.6,82,51,26,29.92,29.74,9,1,9,0.00
2012-6-30,107.3,88.1,69.3,72.3,68.3,63.3,89,56,25,29.85,29.74,7,1,7,0.00
2012-7-1,106.1,93.9,72.8,74.5,68.5,62.4,86,47,28,29.91,29.78,26,1,29,0.11
2012-7-2,94.4,80.6,70.4,75.0,68.6,63.8,89,68,46,30.04,29.87,22,3,24,0.50
2012-7-3,97.7,81.5,67.2,71.5,67.6,64.6,95,66,39,30.01,29.85,12,1,12,0.00
2012-7-4,95.3,80.5,68.2,74.6,69.3,65.5,92,71,46,29.98,29.87,13,1,13,0.00
2012-7-5,102.5,80.9,68.1,73.9,68.9,65.0,96,72,34,30.02,29.83,29,1,39,0.07
2012-7-6,98.8,82.0,66.1,73.4,68.4,64.9,98,68,38,29.97,29.85,11,1,12,0.01
2012-7-7,100.3,85.4,71.5,73.4,70.6,67.9,89,63,39,29.96,29.83,12,1,12,0.00
2012-7-8,100.2,87.0,75.0,73.9,70.7,66.8,84,61,35,29.97,29.77,16,2,16,0.00
2012-7-9,90.9,78.8,71.1,79.4,72.6,66.3,97,82,54,29.93,29.80,14,1,23,1.48
2012-7-10,88.8,74.1,68.6,76.1,70.4,67.0,98,89,60,29.98,29.86,17,1,21,1.51
2012-7-11,72.8,71.1,69.8,71.9,70.1,68.8,98,97,92,30.03,29.92,5,0,5,0.25
2012-7-12,76.1,72.1,69.7,72.2,70.2,68.3,97,94,84,30.03,29.97,14,1,14,0.25
2012-7-13,86.8,76.2,69.7,77.4,71.4,68.2,97,85,65,30.06,29.97,17,1,17,0.35
2012-7-14,90.2,80.2,73.8,76.5,71.9,69.1,90,77,52,30.10,30.00,16,2,16,0.00
2012-7-15,87.7,80.7,73.9,77.5,72.5,69.1,91,76,61,30.13,29.99,15,1,15,0.00
2012-7-16,92.2,79.5,68.8,77.3,72.5,67.6,98,81,54,30.06,29.89,6,0,6,0.00
2012-7-17,91.8,77.7,70.0,79.0,71.9,68.5,96,84,54,29.97,29.86,7,1,12,0.05
2012-7-18,92.2,76.4,68.8,78.1,71.8,66.4,98,87,57,30.02,29.85,19,1,20,1.27
2012-7-19,92.9,77.7,69.3,78.1,72.5,68.4,98,86,56,30.02,29.85,6,0,6,0.01
2012-7-20,88.4,76.6,70.2,76.1,71.6,68.2,98,85,62,29.95,29.83,13,1,13,0.98
2012-7-21,84.5,75.7,69.0,77.5,72.3,68.1,98,89,74,30.01,29.90,11,1,12,0.44
2012-7-22,91.7,84.4,71.5,76.4,72.9,68.6,97,69,51,30.12,30.04,11,1,12,0.00
2012-7-23,93.4,80.2,69.3,78.3,72.1,67.5,95,78,57,30.15,29.99,9,1,9,0.00
2012-7-24,94.0,79.0,71.7,78.0,73.2,70.3,97,84,52,30.03,29.86,4,0,2,0.00
2012-7-25,94.2,82.0,71.9,79.3,74.3,70.4,97,79,55,29.94,29.82,6,0,6,0.00
2012-7-26,94.1,81.1,71.5,78.1,72.8,70.1,97,78,50,29.91,29.75,8,0,11,0.00
2012-7-27,92.2,82.4,75.2,76.6,73.3,69.7,92,75,52,29.91,29.81,7,0,9,0.00
2012-7-28,93.8,79.2,69.5,77.7,71.9,67.7,97,80,52,29.98,29.89,15,1,15,0.00
2012-7-29,89.7,76.7,63.9,73.2,66.7,62.7,98,74,45,29.99,29.90,5,0,6,0.00
2012-7-30,83.6,69.2,63.6,71.5,65.0,62.1,96,87,64,29.95,29.89,4,0,5,0.00
2012-7-31,92.1,85.5,77.3,76.0,73.3,69.9,84,68,54,29.87,29.76,7,1,12,0.01
2012-8-1,94.2,76.5,67.5,77.4,70.9,63.5,97,84,54,29.91,29.77,12,1,12,0.89
2012-8-2,93.9,77.6,64.1,80.0,71.0,63.0,98,82,52,29.89,29.77,7,1,7,0.01
2012-8-3,85.8,78.3,72.0,77.9,73.6,69.4,95,86,73,29.93,29.79,14,1,14,0.02
2012-8-4,87.6,80.1,74.0,77.0,72.1,69.4,90,77,65,30.06,29.91,16,2,20,0.00
2012-8-5,91.4,79.2,70.9,77.5,71.9,69.7,96,79,59,30.11,30.01,16,2,18,0.14
2012-8-6,86.6,75.2,69.7,78.0,72.5,68.8,98,92,71,30.08,29.93,9,1,9,0.54
2012-8-7,91.1,79.6,72.1,78.5,73.2,70.1,96,82,60,29.97,29.85,6,1,6,0.00
2012-8-8,92.2,80.3,71.5,77.9,73.2,70.3,97,80,51,29.97,29.84,5,0,6,0.00
2012-8-9,85.6,72.7,67.0,76.2,69.8,65.4,98,91,69,29.95,29.77,22,1,22,1.59
2012-8-10,82.4,71.7,65.8,75.7,69.4,64.9,98,93,75,29.84,29.72,11,1,11,1.54
2012-8-11,82.7,72.6,63.7,68.0,64.6,57.7,98,78,48,29.94,29.81,7,1,10,0.01
2012-8-12,83.2,69.7,55.2,68.0,61.5,54.1,98,78,47,30.00,29.92,6,0,6,0.00
2012-8-13,82.2,68.0,58.0,68.6,62.4,56.0,98,84,51,30.00,29.85,16,1,17,0.10
2012-8-14,85.4,72.4,62.6,74.5,67.8,60.8,97,86,64,29.94,29.82,9,1,10,0.12
2012-8-15,86.0,73.5,66.0,73.5,67.9,64.2,98,84,51,29.95,29.85,7,1,10,0.01
2012-8-16,88.7,74.3,60.5,73.2,65.8,59.6,98,78,48,30.01,29.85,5,1,5,0.01
2012-8-17,81.3,73.0,66.0,72.6,68.3,64.8,97,86,68,29.94,29.83,5,0,6,0.04
2012-8-18,84.7,74.3,65.5,71.4,67.4,64.3,98,81,53,29.90,29.77,4,0,5,0.01
2012-8-19,82.5,69.7,63.5,71.5,66.7,62.3,97,91,64,29.85,29.77,9,0,9,0.61
2012-8-20,83.6,68.9,57.3,67.2,60.3,53.4,99,78,37,29.93,29.84,7,0,9,0.01
2012-8-21,72.9,60.9,55.5,65.3,57.9,54.3,98,90,71,30.01,29.92,4,0,4,0.01
2012-8-22,87.1,69.3,55.5,67.4,58.8,53.9,97,73,33,30.08,29.99,6,0,6,0.00
2012-8-23,87.9,70.8,55.7,68.5,59.8,54.3,97,72,34,30.10,29.99,6,1,7,0.00
2012-8-24,89.6,76.8,62.0,72.0,65.1,60.0,95,69,43,30.09,29.96,13,1,17,0.00
2012-8-25,89.6,78.4,68.5,70.9,65.7,62.4,86,66,43,30.09,29.98,12,1,12,0.00
2012-8-26,90.2,76.5,63.2,71.8,66.3,61.5,96,73,44,30.13,29.97,6,1,6,0.00
2012-8-27,91.8,80.6,68.7,72.8,67.7,63.8,89,66,45,30.07,29.89,12,1,13,0.00
2012-8-28,90.6,77.3,67.9,74.3,68.4,63.7,90,75,52,29.95,29.85,10,1,10,0.00
2012-8-29,90.7,79.4,70.4,76.6,71.9,68.4,94,79,54,29.95,29.82,7,0,7,0.00
2012-8-30,89.3,80.8,74.6,74.8,71.7,69.0,85,74,59,30.06,29.88,13,1,13,0.00
2012-8-31,89.3,80.1,74.6,74.9,71.1,69.2,86,74,59,30.16,30.04,10,1,10,0.00
2012-9-1,88.1,78.2,71.0,75.5,71.3,68.7,94,80,62,30.11,30.06,6,1,4,0.00
2012-9-2,88.8,77.5,68.8,75.4,71.4,67.3,96,82,61,30.00,29.79,20,2,20,0.73
2012-9-3,80.4,72.9,68.6,74.0,70.4,67.4,96,92,76,29.89,29.82,13,1,15,0.34
2012-9-4,81.3,75.5,72.0,77.5,73.3,70.4,97,93,83,29.85,29.80,6,0,9,0.10
2012-9-5,87.5,77.7,72.3,76.8,73.0,71.1,98,86,64,29.88,29.76,11,1,12,0.00
2012-9-6,89.5,77.9,70.3,75.2,72.0,68.5,98,83,55,29.92,29.80,6,0,7,0.16
2012-9-7,91.7,77.2,64.8,74.4,68.9,63.6,98,78,45,29.93,29.73,9,1,9,0.01
2012-9-8,80.5,71.2,60.5,72.8,67.4,59.3,96,88,71,29.88,29.69,10,0,10,0.30
2012-9-9,79.0,65.2,54.6,63.8,58.1,53.8,98,81,47,30.01,29.85,7,1,9,0.01
2012-9-10,82.0,66.4,53.1,63.7,57.6,52.0,98,77,41,30.10,29.99,5,1,7,0.01
2012-9-11,84.2,68.8,55.5,66.3,59.5,54.1,97,75,46,30.21,30.08,9,1,9,0.00
2012-9-12,82.3,73.3,66.5,65.2,61.6,58.6,85,68,48,30.27,30.14,8,1,10,0.00
2012-9-13,80.1,71.8,64.8,65.6,60.8,57.4,86,69,50,30.27,30.14,9,1,9,0.00
2012-9-14,84.2,71.3,59.7,66.6,60.9,56.8,92,71,46,30.20,30.10,10,1,10,0.00
2012-9-15,85.2,70.4,57.5,67.3,61.7,56.5,98,77,46,30.16,30.03,7,1,7,0.00
2012-9-16,85.4,73.2,62.9,68.9,64.0,61.0,95,75,49,30.06,29.94,9,1,9,0.00
2012-9-17,74.0,71.1,68.4,71.2,67.3,64.2,97,88,73,29.98,29.69,11,1,13,2.78
2012-9-18,74.5,66.9,55.2,69.5,64.6,52.6,98,92,78,29.95,29.61,10,1,12,3.13
2012-9-19,75.5,60.6,48.3,60.4,54.4,47.1,98,82,53,30.07,29.94,10,1,11,0.01
2012-9-20,80.5,66.6,53.9,67.6,60.2,52.6,98,81,58,30.07,29.96,12,1,12,0.01
2012-9-21,82.0,69.3,58.0,67.8,61.0,56.6,98,76,48,30.02,29.88,12,1,13,0.00
2012-9-22,84.2,70.5,56.3,69.9,60.4,48.8,88,71,49,30.03,29.89,15,1,15,0.00
2012-9-23,75.8,59.6,47.3,55.1,46.7,37.5,97,68,28,30.17,30.02,6,0,7,0.00
2012-9-24,73.8,57.1,44.2,51.0,45.6,41.5,91,69,37,30.21,30.08,7,1,10,0.00
2012-9-25,81.8,68.5,56.3,64.0,54.4,45.4,78,62,38,30.15,30.04,14,2,19,0.00
2012-9-26,83.5,71.4,60.3,66.8,60.2,56.2,91,69,47,30.16,30.05,11,1,15,0.00
2012-9-27,85.1,71.2,58.2,68.4,62.7,56.5,96,76,49,30.16,30.02,11,1,11,0.00
2012-9-28,83.3,70.0,60.3,71.8,65.0,59.2,100,86,59,30.06,29.93,11,0,11,0.04
2012-9-29,78.0,68.4,59.0,69.3,64.7,55.5,98,89,69,30.00,29.82,10,0,11,0.15
2012-9-30,74.2,63.8,55.3,65.9,59.8,53.6,97,88,64,29.88,29.74,7,1,7,0.01
2012-10-1,73.9,66.8,59.1,69.0,63.9,58.1,98,91,80,29.75,29.52,23,5,27,0.69
2012-10-2,71.1,68.0,61.1,67.1,63.9,60.0,97,87,76,29.93,29.58,13,2,13,0.13
2012-10-3,73.5,64.0,58.2,64.2,60.5,56.8,98,89,63,30.15,29.92,5,0,6,0.02
2012-10-4,79.5,64.3,52.9,63.3,58.1,52.1,100,82,51,30.25,30.14,5,0,5,0.01
2012-10-5,80.0,64.6,52.5,65.0,58.4,51.6,98,82,52,30.18,29.96,9,1,9,0.02
2012-10-6,63.3,57.8,52.0,61.8,56.0,50.9,97,94,85,30.03,29.91,5,0,6,0.09
2012-10-7,58.0,50.8,45.4,51.0,47.9,43.6,97,90,67,30.13,29.96,10,0,10,0.26
2012-10-8,50.7,49.1,46.2,49.3,47.5,44.6,96,94,91,30.19,30.04,9,0,9,0.23
2012-10-9,62.4,52.9,47.1,53.7,49.6,45.8,100,89,67,30.14,30.01,7,0,7,0.00
2012-10-10,66.0,54.5,46.4,58.7,51.5,44.8,97,90,73,30.17,30.01,9,0,13,0.01
2012-10-11,71.3,54.2,42.7,54.0,47.8,41.6,97,82,39,30.26,30.17,7,1,10,0.01
2012-10-12,64.3,59.7,55.5,61.6,57.3,52.5,97,92,86,30.26,30.16,6,0,7,0.23
2012-10-13,77.2,63.6,51.4,62.0,55.4,50.6,100,77,52,30.28,30.14,23,2,24,0.01
2012-10-14,75.7,67.5,62.0,64.0,58.8,51.9,81,74,64,30.15,29.87,31,5,31,0.00
2012-10-15,71.8,62.4,49.0,64.3,55.7,46.7,98,81,45,29.92,29.81,16,1,16,0.79
2012-10-16,71.3,55.0,41.9,52.8,46.4,40.8,100,77,38,29.99,29.82,6,1,7,0.01
2012-10-17,76.5,61.4,45.3,57.2,48.4,43.8,96,66,40,29.92,29.68,26,3,26,0.00
2012-10-18,66.9,61.8,52.2,61.6,54.4,43.1,94,78,51,29.79,29.67,26,3,30,0.17
2012-10-19,67.1,54.1,48.1,46.3,41.1,36.5,80,63,36,29.77,29.68,21,2,21,0.00
2012-10-20,64.7,54.8,45.8,50.6,46.2,42.8,94,74,51,29.98,29.77,5,0,5,0.00
2012-10-21,73.7,54.4,40.3,53.7,46.7,39.0,100,78,44,30.14,29.97,6,1,9,0.01
2012-10-22,77.9,58.2,45.8,58.7,50.6,44.4,97,79,43,30.20,30.07,7,1,7,0.00
2012-10-23,78.8,61.5,51.2,59.5,53.8,49.2,95,78,45,30.15,30.03,6,1,11,0.00
2012-10-24,80.3,61.7,47.5,59.3,53.6,46.3,98,78,45,30.15,30.01,7,1,9,0.01
2012-10-25,79.6,69.1,57.4,64.1,56.0,48.5,86,64,51,30.07,29.95,15,1,17,0.00
2012-10-26,81.5,69.4,58.7,64.7,59.2,55.1,90,71,51,30.01,29.85,13,1,14,0.00
2012-10-27,61.3,53.8,49.5,58.5,50.7,46.2,94,89,84,29.93,29.85,12,1,15,0.01
2012-10-28,50.4,47.6,44.7,47.9,44.9,40.5,99,90,85,29.94,29.81,12,1,13,0.34
2012-10-29,48.7,45.6,40.8,41.4,36.2,24.5,88,70,44,29.94,29.75,9,1,13,0.00
2012-10-30,50.4,45.6,40.2,36.8,32.1,28.3,75,59,45,29.79,29.66,12,2,14,0.00
2012-10-31,61.2,47.2,36.9,37.1,29.8,23.2,78,53,25,29.89,29.77,11,1,12,0.00
2012-11-1,61.3,44.2,29.6,33.5,27.5,21.5,92,56,22,29.99,29.88,10,1,12,0.00
2012-11-2,72.2,53.4,39.1,48.9,38.3,29.4,83,59,34,30.00,29.87,12,1,12,0.00
2012-11-3,73.8,53.4,36.6,54.3,42.4,33.9,92,69,41,30.09,29.91,10,1,14,0.00
2012-11-4,63.9,57.0,39.9,56.0,48.3,36.9,90,73,52,30.05,29.92,7,1,11,0.00
2012-11-5,62.1,46.6,33.4,42.1,35.9,31.6,100,70,35,30.10,29.94,9,1,9,0.00
2012-11-6,52.5,47.1,42.9,46.7,43.4,36.0,96,87,67,29.98,29.89,9,1,13,0.39
2012-11-7,49.4,45.6,42.4,46.3,43.9,40.7,100,94,86,30.05,29.86,6,0,9,0.30
2012-11-8,59.6,45.0,32.5,45.0,38.0,31.2,100,79,46,30.21,30.05,9,1,10,0.01
2012-11-9,66.2,46.3,30.8,44.0,37.1,29.4,97,74,38,30.31,30.17,7,1,7,0.01
2012-11-10,70.6,51.6,35.0,47.5,40.1,33.4,95,68,35,30.34,30.20,9,1,9,0.00
2012-11-11,72.0,62.3,50.9,53.2,45.7,37.0,65,55,44,30.34,30.17,25,3,26,0.00
2012-11-12,67.4,58.6,39.7,59.7,52.1,37.0,95,80,65,30.35,30.07,34,5,34,0.52
2012-11-13,52.4,41.5,32.8,37.3,31.9,29.3,93,70,47,30.41,30.31,17,2,17,0.17
2012-11-14,54.1,43.0,33.7,40.3,34.4,29.3,87,72,54,30.40,30.23,11,1,11,0.00
2012-11-15,60.9,45.3,35.8,42.0,37.0,33.3,93,75,46,30.31,30.18,6,1,6,0.00
2012-11-16,59.6,33.1,31.2,41.4,-7.8,-99.9,96,43,39,30.32,30.23,10,-315,10,0.01
2012-11-17,63.0,22.6,35.5,40.7,-43.9,-99.9,84,21,36,30.42,30.30,7,-589,7,0.00
2012-11-18,63.4,28.0,35.0,38.9,-30.0,-99.9,89,27,33,30.39,30.26,6,-486,7,0.00
2012-12-9,68.8,16.5,67.3,58.4,-61.5,-99.9,72,18,68,29.90,29.83,6,1,0,0.02
2012-12-10,-200.0,0.0,200.0,-99.9,-99.9,-99.9,0,0,100,29.86,29.59,0,0,0,0.00
2012-12-11,38.8,24.4,34.4,33.8,-12.5,-99.9,85,54,79,30.19,29.86,7,-2,7,0.00
2012-12-12,48.3,39.1,32.6,37.4,32.3,28.8,92,77,61,30.29,30.18,10,1,12,0.00
2012-12-13,55.4,38.7,28.2,41.9,34.1,26.7,96,85,58,30.38,30.25,6,1,7,0.00
2012-12-14,59.0,41.5,29.6,42.8,35.5,28.1,96,81,51,30.37,30.17,6,1,7,0.01
2012-12-15,62.2,49.8,40.0,50.0,42.3,36.3,94,76,56,30.18,29.95,12,2,15,0.12
2012-12-16,58.4,55.5,52.5,55.8,53.0,49.2,97,92,80,29.97,29.73,23,2,23,1.32
2012-12-17,60.2,55.3,50.9,56.5,52.6,49.5,97,91,81,29.79,29.59,15,2,20,0.48
2012-12-18,56.1,48.7,42.6,50.9,39.9,33.1,96,73,48,29.94,29.64,9,1,9,0.09
2012-12-19,64.8,50.4,36.5,49.5,41.2,33.0,92,71,53,30.07,29.94,9,1,10,0.00
2012-12-20,59.6,51.9,40.4,51.8,41.9,28.7,95,70,46,29.98,29.50,32,7,33,0.99
2012-12-21,43.6,36.9,29.6,30.3,23.2,16.9,69,58,46,30.20,29.80,16,4,21,0.00
2012-12-22,45.9,32.5,22.6,24.8,20.3,15.8,85,62,38,30.33,30.19,7,1,9,0.00
2012-12-23,56.2,39.2,24.3,41.1,28.6,20.2,92,68,39,30.19,30.00,16,1,17,0.17
2012-12-24,55.9,49.8,43.6,54.5,48.3,40.5,100,95,86,30.00,29.78,11,1,11,1.11
2012-12-25,52.9,48.3,45.2,49.2,46.7,44.4,97,94,81,30.01,29.70,19,2,20,0.60
2012-12-26,58.3,44.8,34.1,53.0,40.5,29.4,97,85,76,29.99,29.35,34,6,34,0.43
2012-12-27,37.3,35.3,33.0,31.1,30.1,28.6,88,81,76,30.13,29.99,6,1,8,0.00
2012-12-28,44.2,37.2,31.3,38.8,33.4,28.2,95,86,78,30.14,29.73,34,2,35,0.25
2012-12-29,42.6,37.6,33.0,39.7,34.6,28.1,96,89,81,30.26,29.67,26,3,29,0.18
2012-12-30,41.6,32.8,26.7,28.7,24.9,21.1,89,73,53,30.50,30.26,9,1,9,0.01
2012-12-31,48.1,37.2,25.0,35.7,29.2,22.7,100,74,53,30.39,30.07,6,1,7,0.00
2013-1-1,50.4,45.8,40.0,50.0,43.7,33.8,100,93,58,30.10,29.94,6,1,6,1.19